Location: C�mpuri de-Sus
(45.9500°N, 22.5500°E)
Time: 17:48:16
(UTC+00:00)

Cosmos 839 Rocket - Pass Details

Date: 09 December 2023
Orbit: 960 x 2093 km, 65.9° (Epoch: 20 February)

Event Time Altitude Azimuth Distance (km) Brightness Sun altitude
Exits shadow 02:08:11 64° 335° (NNW) 2,261 5.6 -39.1°
Drops below altitude 10° 02:18:51 10° 34° (NE) 4,346 7.7 -37.3°
Sets 02:22:03 0° 38° (NE) 5,234 8.3 -36.7°
